Skip Page Navigation
NASA JPL Caltech
NASA Logo - Jet Propulsion Laboratory + View the NASA Portal
+ Center for Near-Earth Object Studies
JPL Home Earth Solar System Stars & Galaxies Technology
JPL Solar System Dynamics
BODIES ORBITS EPHEMERIDES TOOLS PHYSICAL DATA DISCOVERY FAQ SITE MAP
IMPORTANT: The SSD Announcement email list is now available. Major changes are coming in the near future, including possible hostname and/or URL changes. To be notified of such changes, subscribe to this email list.

Please visit this page for more details.


JPL Small-Body Database Browser
Search: [ help ]  
487416 (2014 QH384)
Classification: Main-belt Asteroid          SPK-ID: 2487416
Ephemeris | Orbit Diagram | Orbital Elements | Mission Design | Physical Parameters | Discovery Circumstances | Close-Approach Data ]

[ show orbit diagram ]
Orbital Elements at Epoch 2458600.5 (2019-Apr-27.0) TDB
Reference: JPL 13 (heliocentric ecliptic J2000)
 Element Value Uncertainty (1-sigma)   Units 
e .1333223653535492 3.704e-07  
a 3.123320045991138 1.1265e-07 au
q 2.706911629703444 1.2218e-06 au
i 27.91481989635538 2.5216e-05 deg
node 338.3557732333318 1.8073e-05 deg
peri 198.5017450307249 6.4814e-05 deg
M 111.7344744112273 7.5623e-05 deg
tp 2457974.739926777283
(2017-Aug-09.23992678)
0.00040494 TDB
period 2016.151483660107
5.52
0.00010908
2.986e-07
d
yr
n .1785580115966577 9.6605e-09 deg/d
Q 3.539728462278832 1.2767e-07 au
  Orbit Determination Parameters
   # obs. used (total)      132  
   data-arc span      4998 days (13.68 yr)  
   first obs. used      2003-09-20  
   last obs. used      2017-05-27  
   planetary ephem.      DE431  
   SB-pert. ephem.      SB431-N16  
   condition code      0  
   norm. resid. RMS      .6619  
   source      ORB  
   producer      Otto Matic  
   solution date      2019-Jul-14 16:10:24  

Additional Information
 Earth MOID = 1.72328 au 
 Jupiter MOID = 1.48216 au 
 T_jup = 3.023 
[ show covariance matrix ]

Ephemeris | Orbit Diagram | Orbital Elements | Mission Design | Physical Parameters | Discovery Circumstances | Close-Approach Data ]

Physical Parameter Table
Parameter Symbol Value Units Sigma Reference Notes
absolute magnitude H 15.5   n/a MPO399028  

487416 (2014 QH384)          Discovered 2006-Jan-06 by LINEAR at Socorro
Reference: Last Updated: 2017-03-14

[ show close-approach data ]
Alternate Designations
 2014 QH384 = 2006 AD85 
Ephemeris | Orbit Diagram | Orbital Elements | Mission Design | Physical Parameters | Discovery Circumstances | Close-Approach Data ]
ABOUT SSD CREDITS/AWARDS PRIVACY/COPYRIGHT GLOSSARY LINKS
FirstGov
(server date/time)  
NASA Home Page
Site Manager:   Ryan S. Park
Webmaster  Alan B. Chamberlin